Regional Weather Roundup
Issued by NWS

Home | Current Version | Previous Version | Text Only | Print | Product List | Glossary On
Versions: 1 2 3 4 5 6 7 8 9 10 11 12 13 14 15 16 17 18 19 20 21 22 23 24 25 26 27 28 29 30 31 32 33 34 35 36 37 38 39 40 41 42 43 44 45 46 47 48 49 50
000
ASUS43 KDMX 251407
RWRIA

WEATHER ROUNDUP FOR IOWA
NATIONAL WEATHER SERVICE DES MOINES IA
900 AM CDT FRI JUL 25 2014

NOTE: "FAIR" INDICATES FEW OR NO CLOUDS BELOW 12,000 FEET WITH NO
SIGNIFICANT WEATHER AND/OR OBSTRUCTIONS TO VISIBILITY.

* - THESE STATIONS ARE NOT NWS STATIONS...THUS NOT UNDER NWS
QUALITY CONTROL.  THEY ALSO DO NOT REPORT WEATHER SUCH
AS PRECIPITATION OR FOG.

IAZ001>003-012>014-020>022-031>034-043>046-251500-
   NORTHWEST IOWA

CITY           SKY/WX    TMP DP  RH WIND       PRES   REMARKS
CARROLL *      CLOUDY    66  57  72 SE16G26   29.90R
CHEROKEE *     CLOUDY    66  61  82 SE17G25   29.85S
DENISON *      MOSUNNY   68  61  77 SE17G24   29.84R
LE MARS *      CLOUDY    68  63  83 SE15G29   29.80S
ORANGE CITY *  SUNNY     68  59  73 SE14G26   29.80F
SHELDON *      SUNNY     68  61  77 SE22G31   29.80F
SIOUX CITY     SUNNY     72  63  73 SE20G26   29.77F
SPENCER        MOSUNNY   68  59  73 S24G36    29.82F
STORM LAKE *   PTSUNNY   66  61  82 SE16G24   29.88F
$$

IAZ055>058-069>071-079>083-090>094-251500-
   SOUTHWEST IOWA

CITY           SKY/WX    TMP DP  RH WIND       PRES   REMARKS
ATLANTIC *     CLOUDY    68  61  77 SE12G21   29.87R
AUDUBON *      MOSUNNY   68  63  83 SE14G21   29.90R
CLARINDA *     SUNNY     72  64  78 VRB5      29.86S
COUNCIL BLFS * SUNNY     73  68  83 SE10G20   29.83R
CRESTON *      MOSUNNY   66  59  77 SE17G24   29.89S
HARLAN  *      SUNNY     68  61  77 SE9G20    29.90R
LAMONI         PTSUNNY   66  58  75 E8        29.91S
RED OAK *      SUNNY     72  64  78 E8G14     29.85R
SHENANDOAH *   SUNNY     75  68  78 E8        29.83S
$$

IAZ047>049-059>061-072>074-084-251500-
   CENTRAL IOWA

CITY           SKY/WX    TMP DP  RH WIND       PRES   REMARKS
AMES           CLOUDY    65  61  87 S14G22    29.93S
ANKENY *       CLOUDY    66  61  82 SE12      29.94S
CHARITON *     MOSUNNY   66  59  77 SE21G29   29.92F
DES MOINES     CLOUDY    67  58  72 SE12      29.94R
GRINNELL*      RAIN      61  61 100 SE9G16    29.99R
KNOXVILLE *    CLOUDY    64  59  82 SE14G23   29.94R
MARSHALLTOWN   LGT RAIN  65  63  93 SE15      29.98R
PELLA *        CLOUDY    64  61  88 SE13      29.97R
PERRY *        CLOUDY    66  59  77 SE13G18   29.92S
$$

IAZ004>006-015-016-023>025-035-036-251500-
   NORTH CENTRAL IOWA

CITY           SKY/WX    TMP DP  RH WIND       PRES   REMARKS
ALGONA *       SUNNY     66  63  88 S24G37    29.82F
CLARION *      PTSUNNY   66  63  88 S18       29.88F
FORT DODGE *   CLOUDY    64  61  88 SE10      29.93R
MASON CITY     LGT RAIN  66  65  96 S22G35    29.81F
FOREST CITY *    N/A     64  64 100 S14G26    29.83F
IOWA FALLS *   RAIN      64  63  94 SE16      29.95S
$$

IAZ007>011-017>019-026>030-037>042-050>054-066-251500-
   NORTHEAST IOWA

CITY           SKY/WX    TMP DP  RH WIND       PRES   REMARKS
CEDAR RAPIDS   LGT RAIN  61  58  90 S10       29.98R
CHARLES CITY * LGT RAIN  63  63 100 S18G30    29.87F
CLINTON *      CLOUDY    63  57  82 S13       30.04R
DECORAH *      CLOUDY    61  61 100 S10G18    29.92R
DUBUQUE        PTSUNNY   62  59  90 S13       30.00S
MONTICELLO *   SUNNY     63  59  88 S10       30.02R
OELWEIN *      RAIN      61  61 100 SW6G18    30.04R
WATERLOO       HVY RAIN  63  61  93 S14G20    29.99R FOG
$$

IAZ064-065-067-068-078-251500-
   EAST CENTRAL IOWA

CITY           SKY/WX    TMP DP  RH WIND       PRES   REMARKS
DAVENPORT      CLOUDY    64  59  83 S16       30.01F
MT. PLEASANT * LGT RAIN  61  59  94 S10G16    29.99F
MUSCATINE *    CLOUDY    63  59  88 SE9       29.99S
QUAD CITIES    CLOUDY    63  58  83 S13G18    29.98F
$$

IAZ062-063-075>077-085>089-095>099-251500-
   SOUTHEAST IOWA

CITY           SKY/WX    TMP DP  RH WIND       PRES   REMARKS
BURLINGTON     RAIN      62  60  93 S9        30.02F FOG
FAIRFIELD *    HVY RAIN  61  59  94 SW9G20    30.04R
FORT MADISON * HVY RAIN  63  63 100 S9        30.03F
KEOKUK *       CLOUDY    63  61  94 CALM      30.06F
OSKALOOSA *    CLOUDY    61  61 100 S21       29.97F
CENTERVILLE *  CLOUDY    63  59  88 E14G21    29.98F
OTTUMWA        CLOUDY    62  59  90 SE17G25   29.99F
WASHINGTON *   CLOUDY    61  59  94 SW6G12    30.00R
$$

ABBREVIATIONS USED IN REMARKS
   TC - TEMPERATURES IN CELSIUS
  WCI - WIND CHILL INDEX
   HX - HEAT INDEX
  VSB - VISIBILITY
$$




USA.gov is the U.S. government's official web portal to all federal, state and local government web resources and services.